John F Kennedy International Airport New York US
ICAO: KJFK
IATA: JFK
Category: Large
Scheduled Services: Yes

Elevation: 13 ft
TransAlt. 18000 ft.

Airport Communications:
NEW YORK APP (ROBER):125.7
NEW YORK APPROACH (CAMRN):127.4
NEW YORK APPROACH (FINAL):132.4
ATIS:115.1
CLNC DEL:135.05
NEW YORK DEP:135.9
GND:121.9
NEW YORK RDO:115.9
KENNEDY TWR:119.1
UNICOM:122.95

KJFK Zoom In..

Runways:

(A) RW 04L length 11351 ft width 150 ft
ILS 110.90 / hdg 45

(B) RW 04R length 8400 ft width 200 ft
ILS 109.50 / hdg 45

(C) RW 13L length 10000 ft width 150 ft
ILS 111.50 / hdg 135

(D) RW 13R length 14511 ft width 200 ft
---- / hdg 135

(E) RW 22L length 8400 ft width 200 ft
ILS 110.90 / hdg 225

(F) RW 22R length 11351 ft width 150 ft
ILS 109.50 / hdg 225

(G) RW 31L length 14511 ft width 200 ft
ILS 111.35 / hdg 315

(H) RW 31R length 10000 ft width 150 ft
ILS 111.50 / hdg 315

Location; KJFK
Day. 25 / Time. 12.15 Zulu
* Altimeter: 29.92
* Temperature: 12° c. 53.6°f.
* Wind from: 110° Speed 17 kn with Gusts up to 26 kn.
Dewpoint: 12° c.
Visibility: 4 Statute Miles.
Clouds: Overcast 400 ft.
Conditions: Light Rain.Conditions: Mist.

KJFK 251215Z 11017G26KT 4SM -RA BR OVC004 12/12 A2992 RMK AO2 PK WND 12026/1212 P0001 T01220122


Wind From 110°
Speed 17 kn.

  YouTube Music Video
 
jpsmedia.com for Web Design  worldairports.se 2018   terms of use